Location: Tucson
(32.2217°N, 110.9265°W)
Time: 07:11:41
(UTC-07:00)

Tiros 1 - Pass Details

Date: 28 October 2021
Orbit: 629 x 664 km, 48.4° (Epoch: 26 November)

Event Time Altitude Azimuth Distance (km) Brightness Sun altitude
Rises 13:36:31 0° 318° (NW) 2,968 10.4 39.6°
Reaches altitude 10° 13:39:22 10° 334° (NNW) 2,049 9.6 39.3°
Maximum altitude 13:42:58 21° 24° (NNE) 1,437 8.7 39.0°
Drops below altitude 10° 13:46:32 10° 74° (ENE) 2,028 9.4 38.6°
Sets 13:49:20 0° 90° (E) 2,928 10.3 38.3°
